Time,TemperatureF,DewpointF,PressureIn,WindDirection,WindDirectionDegrees,WindSpeedMPH,WindSpeedGustMPH,Humidity,HourlyPrecipIn,Conditions,Clouds,dailyrainin,SoftwareType,DateUTC
2013-12-13 00:00:00,14.2,5.6,30.09,SW,219,0.0,12.0,68,0.00,,,0.00,Wunderground v.1.15,2013-12-13 05:00:00,
2013-12-13 00:05:00,14.1,5.8,30.09,SW,219,0.0,12.0,69,0.00,,,0.00,Wunderground v.1.15,2013-12-13 05:05:00,
2013-12-13 00:14:00,14.1,6.4,30.09,SW,219,0.0,12.0,71,0.00,,,0.00,Wunderground v.1.15,2013-12-13 05:14:00,
2013-12-13 00:19:00,14.1,6.1,30.09,SW,219,0.0,12.0,70,0.00,,,0.00,Wunderground v.1.15,2013-12-13 05:19:00,
2013-12-13 00:24:00,14.2,7.1,30.08,SW,219,0.0,12.0,73,0.00,,,0.00,Wunderground v.1.15,2013-12-13 05:24:00,
2013-12-13 00:29:00,14.4,7.6,30.08,SW,219,0.0,12.0,74,0.00,,,0.00,Wunderground v.1.15,2013-12-13 05:29:00,
2013-12-13 00:34:00,14.6,7.5,30.08,SW,219,0.0,12.0,73,0.00,,,0.00,Wunderground v.1.15,2013-12-13 05:34:00,
2013-12-13 00:40:00,14.9,7.8,30.08,SW,222,0.0,12.0,73,0.00,,,0.00,Wunderground v.1.15,2013-12-13 05:40:00,
2013-12-13 00:45:00,15.9,7.8,30.08,SSW,202,1.0,12.0,70,0.00,,,0.00,Wunderground v.1.15,2013-12-13 05:45:00,
2013-12-13 00:49:00,16.7,7.6,30.08,SW,219,1.0,12.0,67,0.00,,,0.00,Wunderground v.1.15,2013-12-13 05:49:00,
2013-12-13 00:55:00,17.4,8.3,30.08,West,279,3.0,12.0,67,0.00,,,0.00,Wunderground v.1.15,2013-12-13 05:55:00,
2013-12-13 00:59:00,18.1,8.6,30.07,SW,227,4.0,4.0,66,0.00,,,0.00,Wunderground v.1.15,2013-12-13 05:59:00,
2013-12-13 01:04:00,18.4,9.3,30.07,West,274,4.0,12.0,67,0.00,,,0.00,Wunderground v.1.15,2013-12-13 06:04:00,
2013-12-13 01:09:00,18.8,9.3,30.07,WNW,296,3.0,12.0,66,0.00,,,0.00,Wunderground v.1.15,2013-12-13 06:09:00,
2013-12-13 01:14:00,19.1,9.3,30.07,WSW,245,3.0,12.0,65,0.00,,,0.00,Wunderground v.1.15,2013-12-13 06:14:00,
2013-12-13 01:20:00,19.4,9.5,30.07,SW,215,3.0,3.0,65,0.00,,,0.00,Wunderground v.1.15,2013-12-13 06:20:00,
2013-12-13 01:24:00,19.5,9.3,30.07,SW,233,3.0,7.0,64,0.00,,,0.00,Wunderground v.1.15,2013-12-13 06:24:00,
2013-12-13 01:30:00,19.8,9.6,30.07,WSW,258,4.0,12.0,64,0.00,,,0.00,Wunderground v.1.15,2013-12-13 06:30:00,
2013-12-13 01:35:00,19.9,9.7,30.07,WNW,283,4.0,12.0,64,0.00,,,0.00,Wunderground v.1.15,2013-12-13 06:35:00,
2013-12-13 01:44:00,19.9,9.7,30.07,SW,215,3.0,12.0,64,0.00,,,0.00,Wunderground v.1.15,2013-12-13 06:44:00,
2013-12-13 01:49:00,20.0,9.4,30.07,WSW,246,3.0,3.0,63,0.00,,,0.00,Wunderground v.1.15,2013-12-13 06:49:00,
2013-12-13 01:54:00,20.0,9.4,30.07,WNW,288,3.0,12.0,63,0.00,,,0.00,Wunderground v.1.15,2013-12-13 06:54:00,
2013-12-13 01:59:00,20.1,9.5,30.07,WNW,286,3.0,3.0,63,0.00,,,0.00,Wunderground v.1.15,2013-12-13 06:59:00,
2013-12-13 02:04:00,20.0,9.4,30.06,West,270,1.0,12.0,63,0.00,,,0.00,Wunderground v.1.15,2013-12-13 07:04:00,
2013-12-13 02:10:00,20.0,9.4,30.06,SW,234,1.0,12.0,63,0.00,,,0.00,Wunderground v.1.15,2013-12-13 07:10:00,
2013-12-13 02:15:00,20.1,9.5,30.06,WNW,298,1.0,12.0,63,0.00,,,0.00,Wunderground v.1.15,2013-12-13 07:15:00,
2013-12-13 02:20:00,20.4,9.8,30.06,SW,228,3.0,12.0,63,0.00,,,0.00,Wunderground v.1.15,2013-12-13 07:20:00,
2013-12-13 02:24:00,20.6,9.6,30.06,WSW,237,5.0,12.0,62,0.00,,,0.00,Wunderground v.1.15,2013-12-13 07:24:00,
2013-12-13 02:29:00,20.8,9.8,30.06,SW,236,6.0,6.0,62,0.00,,,0.00,Wunderground v.1.15,2013-12-13 07:29:00,
2013-12-13 02:34:00,20.8,9.8,30.06,West,260,6.0,12.0,62,0.00,,,0.00,Wunderground v.1.15,2013-12-13 07:34:00,
2013-12-13 02:39:00,20.6,9.6,30.06,WSW,257,4.0,12.0,62,0.00,,,0.00,Wunderground v.1.15,2013-12-13 07:39:00,
2013-12-13 02:44:00,20.7,9.7,30.06,West,273,5.0,12.0,62,0.00,,,0.00,Wunderground v.1.15,2013-12-13 07:44:00,
2013-12-13 02:49:00,20.7,9.7,30.05,SSE,159,6.0,6.0,62,0.00,,,0.00,Wunderground v.1.15,2013-12-13 07:49:00,
2013-12-13 02:55:00,20.8,9.8,30.05,WSW,252,6.0,12.0,62,0.00,,,0.00,Wunderground v.1.15,2013-12-13 07:55:00,
2013-12-13 03:00:00,20.9,9.9,30.05,WSW,237,6.0,12.0,62,0.00,,,0.00,Wunderground v.1.15,2013-12-13 08:00:00,
2013-12-13 03:05:00,20.9,9.9,30.05,WSW,244,5.0,12.0,62,0.00,,,0.00,Wunderground v.1.15,2013-12-13 08:05:00,
2013-12-13 03:10:00,21.0,10.0,30.05,WSW,251,6.0,12.0,62,0.00,,,0.00,Wunderground v.1.15,2013-12-13 08:10:00,
2013-12-13 03:14:00,21.0,10.0,30.04,WSW,252,6.0,12.0,62,0.00,,,0.00,Wunderground v.1.15,2013-12-13 08:14:00,
2013-12-13 03:19:00,21.1,10.1,30.04,SSW,213,5.0,5.0,62,0.00,,,0.00,Wunderground v.1.15,2013-12-13 08:19:00,
2013-12-13 03:24:00,21.0,10.4,30.04,WSW,255,6.0,6.0,63,0.00,,,0.00,Wunderground v.1.15,2013-12-13 08:24:00,
2013-12-13 03:29:00,21.1,10.5,30.05,WNW,301,6.0,6.0,63,0.00,,,0.00,Wunderground v.1.15,2013-12-13 08:29:00,
2013-12-13 03:34:00,21.2,10.2,30.04,West,262,6.0,12.0,62,0.00,,,0.00,Wunderground v.1.15,2013-12-13 08:34:00,
2013-12-13 03:40:00,21.2,10.2,30.05,SW,234,5.0,12.0,62,0.00,,,0.00,Wunderground v.1.15,2013-12-13 08:40:00,
2013-12-13 03:45:00,21.2,10.2,30.05,West,262,5.0,12.0,62,0.00,,,0.00,Wunderground v.1.15,2013-12-13 08:45:00,
2013-12-13 03:50:00,21.3,10.7,30.04,WNW,288,6.0,12.0,63,0.00,,,0.00,Wunderground v.1.15,2013-12-13 08:50:00,
2013-12-13 03:55:00,21.2,10.6,30.05,West,275,6.0,12.0,63,0.00,,,0.00,Wunderground v.1.15,2013-12-13 08:55:00,
2013-12-13 03:59:00,21.4,10.7,30.05,West,274,6.0,6.0,63,0.00,,,0.00,Wunderground v.1.15,2013-12-13 08:59:00,
2013-12-13 04:04:00,21.5,10.8,30.05,West,279,7.0,8.0,63,0.00,,,0.00,Wunderground v.1.15,2013-12-13 09:04:00,
2013-12-13 04:10:00,21.6,10.9,30.04,WNW,302,6.0,14.0,63,0.00,,,0.00,Wunderground v.1.15,2013-12-13 09:10:00,
2013-12-13 04:14:00,21.8,11.1,30.05,WNW,295,7.0,14.0,63,0.00,,,0.00,Wunderground v.1.15,2013-12-13 09:14:00,
2013-12-13 04:19:00,21.8,11.1,30.05,WSW,248,6.0,6.0,63,0.00,,,0.00,Wunderground v.1.15,2013-12-13 09:19:00,
2013-12-13 04:24:00,21.7,11.4,30.04,SW,235,4.0,6.0,64,0.00,,,0.00,Wunderground v.1.15,2013-12-13 09:24:00,
2013-12-13 04:29:00,21.7,11.0,30.04,WNW,301,5.0,11.0,63,0.00,,,0.00,Wunderground v.1.15,2013-12-13 09:29:00,
2013-12-13 04:34:00,21.8,11.1,30.04,SW,231,6.0,15.0,63,0.00,,,0.00,Wunderground v.1.15,2013-12-13 09:34:00,
2013-12-13 04:39:00,21.8,11.1,30.04,West,281,5.0,5.0,63,0.00,,,0.00,Wunderground v.1.15,2013-12-13 09:39:00,
2013-12-13 04:45:00,21.8,11.1,30.05,SW,234,6.0,6.0,63,0.00,,,0.00,Wunderground v.1.15,2013-12-13 09:45:00,
2013-12-13 04:50:00,21.8,11.5,30.04,SW,222,6.0,15.0,64,0.00,,,0.00,Wunderground v.1.15,2013-12-13 09:50:00,
2013-12-13 04:55:00,21.8,11.5,30.05,SW,229,6.0,15.0,64,0.00,,,0.00,Wunderground v.1.15,2013-12-13 09:55:00,
2013-12-13 04:59:00,21.7,11.7,30.05,WSW,237,4.0,15.0,65,0.00,,,0.00,Wunderground v.1.15,2013-12-13 09:59:00,
2013-12-13 05:04:00,21.8,11.5,30.05,West,276,5.0,15.0,64,0.00,,,0.00,Wunderground v.1.15,2013-12-13 10:04:00,
2013-12-13 05:09:00,22.0,11.7,30.04,West,271,6.0,6.0,64,0.00,,,0.00,Wunderground v.1.15,2013-12-13 10:09:00,
2013-12-13 05:14:00,21.8,11.8,30.04,West,261,5.0,15.0,65,0.00,,,0.00,Wunderground v.1.15,2013-12-13 10:14:00,
2013-12-13 05:19:00,21.8,11.8,30.05,SSW,196,4.0,4.0,65,0.00,,,0.00,Wunderground v.1.15,2013-12-13 10:19:00,
2013-12-13 05:25:00,21.8,11.8,30.04,WNW,287,4.0,7.0,65,0.00,,,0.00,Wunderground v.1.15,2013-12-13 10:25:00,
2013-12-13 05:30:00,21.8,11.8,30.05,WSW,252,4.0,15.0,65,0.00,,,0.00,Wunderground v.1.15,2013-12-13 10:30:00,
2013-12-13 05:35:00,21.9,12.3,30.04,NW,321,5.0,15.0,66,0.00,,,0.00,Wunderground v.1.15,2013-12-13 10:35:00,
2013-12-13 05:40:00,22.1,12.5,30.04,WNW,282,5.0,15.0,66,0.00,,,0.00,Wunderground v.1.15,2013-12-13 10:40:00,
2013-12-13 05:49:00,22.4,12.4,30.04,WSW,251,6.0,6.0,65,0.00,,,0.00,Wunderground v.1.15,2013-12-13 10:49:00,
2013-12-13 05:54:00,22.4,12.4,30.05,WNW,296,5.0,15.0,65,0.00,,,0.00,Wunderground v.1.15,2013-12-13 10:54:00,
2013-12-13 05:59:00,22.4,12.8,30.05,WNW,291,4.0,15.0,66,0.00,,,0.00,Wunderground v.1.15,2013-12-13 10:59:00,
2013-12-13 06:04:00,22.4,12.8,30.05,WSW,244,4.0,15.0,66,0.00,,,0.00,Wunderground v.1.15,2013-12-13 11:04:00,
2013-12-13 06:09:00,22.5,12.5,30.05,WSW,256,4.0,15.0,65,0.00,,,0.00,Wunderground v.1.15,2013-12-13 11:09:00,
2013-12-13 06:15:00,22.6,12.9,30.05,SW,229,4.0,15.0,66,0.00,,,0.00,Wunderground v.1.15,2013-12-13 11:15:00,
2013-12-13 06:20:00,22.7,12.7,30.05,WNW,286,5.0,5.0,65,0.00,,,0.00,Wunderground v.1.15,2013-12-13 11:20:00,
2013-12-13 06:24:00,22.7,13.0,30.05,WSW,248,5.0,15.0,66,0.00,,,0.00,Wunderground v.1.15,2013-12-13 11:24:00,
2013-12-13 06:29:00,22.8,13.1,30.05,West,260,5.0,5.0,66,0.00,,,0.00,Wunderground v.1.15,2013-12-13 11:29:00,
2013-12-13 06:34:00,22.7,13.0,30.05,NW,318,4.0,15.0,66,0.00,,,0.00,Wunderground v.1.15,2013-12-13 11:34:00,
2013-12-13 06:44:00,22.8,13.1,30.05,West,274,5.0,7.0,66,0.00,,,0.00,Wunderground v.1.15,2013-12-13 11:44:00,
2013-12-13 06:49:00,22.8,13.5,30.05,West,281,5.0,15.0,67,0.00,,,0.00,Wunderground v.1.15,2013-12-13 11:49:00,
2013-12-13 06:55:00,22.8,13.5,30.06,SSW,213,5.0,15.0,67,0.00,,,0.00,Wunderground v.1.15,2013-12-13 11:55:00,
2013-12-13 07:00:00,22.8,13.5,30.06,West,273,5.0,15.0,67,0.00,,,0.00,Wunderground v.1.15,2013-12-13 12:00:00,
2013-12-13 07:09:00,22.9,13.6,30.06,SW,221,5.0,5.0,67,0.00,,,0.00,Wunderground v.1.15,2013-12-13 12:09:00,
2013-12-13 07:14:00,22.9,13.6,30.06,SW,226,4.0,15.0,67,0.00,,,0.00,Wunderground v.1.15,2013-12-13 12:14:00,
2013-12-13 07:19:00,22.8,13.5,30.06,West,277,4.0,15.0,67,0.00,,,0.00,Wunderground v.1.15,2013-12-13 12:19:00,
2013-12-13 07:24:00,22.8,13.5,30.07,West,273,5.0,15.0,67,0.00,,,0.00,Wunderground v.1.15,2013-12-13 12:24:00,
2013-12-13 07:29:00,22.7,13.4,30.06,SSW,202,5.0,5.0,67,0.00,,,0.00,Wunderground v.1.15,2013-12-13 12:29:00,
2013-12-13 07:35:00,22.6,13.3,30.07,WSW,239,4.0,15.0,67,0.00,,,0.00,Wunderground v.1.15,2013-12-13 12:35:00,
2013-12-13 07:40:00,22.6,13.3,30.07,WSW,248,5.0,15.0,67,0.00,,,0.00,Wunderground v.1.15,2013-12-13 12:40:00,
2013-12-13 07:45:00,22.5,13.2,30.07,West,269,6.0,15.0,67,0.00,,,0.00,Wunderground v.1.15,2013-12-13 12:45:00,
2013-12-13 07:50:00,22.5,13.2,30.07,West,268,5.0,5.0,67,0.00,,,0.00,Wunderground v.1.15,2013-12-13 12:50:00,
2013-12-13 07:54:00,22.4,13.1,30.07,WNW,286,5.0,15.0,67,0.00,,,0.00,Wunderground v.1.15,2013-12-13 12:54:00,
2013-12-13 07:59:00,22.4,13.1,30.07,West,275,4.0,15.0,67,0.00,,,0.00,Wunderground v.1.15,2013-12-13 12:59:00,
2013-12-13 08:04:00,22.5,13.2,30.07,WSW,254,5.0,15.0,67,0.00,,,0.00,Wunderground v.1.15,2013-12-13 13:04:00,
2013-12-13 08:09:00,22.6,13.3,30.07,West,265,4.0,15.0,67,0.00,,,0.00,Wunderground v.1.15,2013-12-13 13:09:00,
2013-12-13 08:15:00,22.7,13.4,30.07,WSW,257,3.0,15.0,67,0.00,,,0.00,Wunderground v.1.15,2013-12-13 13:15:00,
2013-12-13 08:19:00,22.8,13.5,30.07,NW,306,4.0,15.0,67,0.00,,,0.00,Wunderground v.1.15,2013-12-13 13:19:00,
2013-12-13 08:25:00,22.9,13.2,30.07,West,277,4.0,15.0,66,0.00,,,0.00,Wunderground v.1.15,2013-12-13 13:25:00,
2013-12-13 08:30:00,23.0,13.7,30.07,WSW,248,4.0,4.0,67,0.00,,,0.00,Wunderground v.1.15,2013-12-13 13:30:00,
2013-12-13 08:34:00,23.0,13.3,30.08,SW,215,4.0,15.0,66,0.00,,,0.00,Wunderground v.1.15,2013-12-13 13:34:00,
2013-12-13 08:39:00,23.2,13.5,30.08,WSW,247,4.0,4.0,66,0.00,,,0.00,Wunderground v.1.15,2013-12-13 13:39:00,
2013-12-13 08:44:00,23.3,13.6,30.08,WSW,246,5.0,9.0,66,0.00,,,0.00,Wunderground v.1.15,2013-12-13 13:44:00,
2013-12-13 08:49:00,23.5,13.8,30.08,SW,229,6.0,6.0,66,0.00,,,0.00,Wunderground v.1.15,2013-12-13 13:49:00,
2013-12-13 08:54:00,23.6,13.9,30.08,WSW,251,5.0,7.0,66,0.00,,,0.00,Wunderground v.1.15,2013-12-13 13:54:00,
2013-12-13 08:59:00,23.7,14.0,30.09,SW,221,5.0,15.0,66,0.00,,,0.00,Wunderground v.1.15,2013-12-13 13:59:00,
2013-12-13 09:05:00,23.8,14.4,30.09,SSW,211,5.0,15.0,67,0.00,,,0.00,Wunderground v.1.15,2013-12-13 14:05:00,
2013-12-13 09:10:00,23.8,14.1,30.09,WSW,258,5.0,5.0,66,0.00,,,0.00,Wunderground v.1.15,2013-12-13 14:10:00,
2013-12-13 09:14:00,23.9,14.2,30.09,West,262,5.0,6.0,66,0.00,,,0.00,Wunderground v.1.15,2013-12-13 14:14:00,
2013-12-13 09:19:00,23.9,14.2,30.09,West,269,6.0,6.0,66,0.00,,,0.00,Wunderground v.1.15,2013-12-13 14:19:00,
2013-12-13 09:24:00,23.9,14.2,30.09,NW,320,6.0,9.0,66,0.00,,,0.00,Wunderground v.1.15,2013-12-13 14:24:00,
2013-12-13 09:29:00,24.0,14.6,30.09,SSW,211,5.0,5.0,67,0.00,,,0.00,Wunderground v.1.15,2013-12-13 14:29:00,
2013-12-13 09:34:00,24.2,14.8,30.09,West,272,5.0,6.0,67,0.00,,,0.00,Wunderground v.1.15,2013-12-13 14:34:00,
2013-12-13 09:39:00,24.2,14.8,30.10,West,278,5.0,15.0,67,0.00,,,0.00,Wunderground v.1.15,2013-12-13 14:39:00,
2013-12-13 09:45:00,24.3,14.9,30.10,West,265,6.0,15.0,67,0.00,,,0.00,Wunderground v.1.15,2013-12-13 14:45:00,
2013-12-13 09:50:00,24.4,15.0,30.10,WNW,302,4.0,15.0,67,0.00,,,0.00,Wunderground v.1.15,2013-12-13 14:50:00,
2013-12-13 09:55:00,24.5,15.1,30.10,NNW,348,4.0,15.0,67,0.00,,,0.00,Wunderground v.1.15,2013-12-13 14:55:00,
2013-12-13 09:59:00,24.6,14.9,30.10,WSW,244,5.0,5.0,66,0.00,,,0.00,Wunderground v.1.15,2013-12-13 14:59:00,
2013-12-13 10:04:00,24.7,14.9,30.10,SW,236,5.0,9.0,66,0.00,,,0.00,Wunderground v.1.15,2013-12-13 15:04:00,
2013-12-13 10:09:00,24.7,14.9,30.10,West,270,5.0,5.0,66,0.00,,,0.00,Wunderground v.1.15,2013-12-13 15:09:00,
2013-12-13 10:14:00,24.8,14.7,30.10,WSW,242,6.0,6.0,65,0.00,,,0.00,Wunderground v.1.15,2013-12-13 15:14:00,
2013-12-13 10:19:00,24.9,15.1,30.10,SW,220,6.0,15.0,66,0.00,,,0.00,Wunderground v.1.15,2013-12-13 15:19:00,
2013-12-13 10:29:00,25.2,15.4,30.10,WNW,297,4.0,15.0,66,0.00,,,0.00,Wunderground v.1.15,2013-12-13 15:29:00,
2013-12-13 10:34:00,25.2,15.1,30.10,West,267,4.0,15.0,65,0.00,,,0.00,Wunderground v.1.15,2013-12-13 15:34:00,
2013-12-13 10:39:00,25.3,15.2,30.10,West,271,6.0,6.0,65,0.00,,,0.00,Wunderground v.1.15,2013-12-13 15:39:00,
2013-12-13 10:44:00,25.4,15.6,30.10,West,277,5.0,15.0,66,0.00,,,0.00,Wunderground v.1.15,2013-12-13 15:44:00,
2013-12-13 10:49:00,25.6,15.5,30.10,WNW,291,4.0,4.0,65,0.00,,,0.00,Wunderground v.1.15,2013-12-13 15:49:00,
2013-12-13 10:55:00,25.5,15.4,30.10,West,267,6.0,6.0,65,0.00,,,0.00,Wunderground v.1.15,2013-12-13 15:55:00,
2013-12-13 11:00:00,25.7,15.6,30.10,West,260,6.0,15.0,65,0.00,,,0.00,Wunderground v.1.15,2013-12-13 16:00:00,
2013-12-13 11:04:00,25.8,15.6,30.09,West,279,7.0,15.0,65,0.00,,,0.00,Wunderground v.1.15,2013-12-13 16:04:00,
2013-12-13 11:09:00,26.0,15.8,30.09,SW,227,5.0,15.0,65,0.00,,,0.00,Wunderground v.1.15,2013-12-13 16:09:00,
2013-12-13 11:14:00,26.2,15.7,30.09,WSW,257,5.0,15.0,64,0.00,,,0.00,Wunderground v.1.15,2013-12-13 16:14:00,
2013-12-13 11:19:00,26.2,15.7,30.09,SW,223,6.0,6.0,64,0.00,,,0.00,Wunderground v.1.15,2013-12-13 16:19:00,
2013-12-13 11:24:00,26.4,16.2,30.09,SSW,211,5.0,7.0,65,0.00,,,0.00,Wunderground v.1.15,2013-12-13 16:24:00,
2013-12-13 11:29:00,26.5,16.0,30.08,West,276,4.0,4.0,64,0.00,,,0.00,Wunderground v.1.15,2013-12-13 16:29:00,
2013-12-13 11:35:00,26.6,15.7,30.09,WNW,283,5.0,5.0,63,0.00,,,0.00,Wunderground v.1.15,2013-12-13 16:35:00,
2013-12-13 11:40:00,26.7,15.8,30.09,WSW,237,4.0,4.0,63,0.00,,,0.00,Wunderground v.1.15,2013-12-13 16:40:00,
2013-12-13 11:50:00,26.9,16.0,30.09,West,275,7.0,7.0,63,0.00,,,0.00,Wunderground v.1.15,2013-12-13 16:50:00,
2013-12-13 11:59:00,27.0,16.1,30.09,WNW,298,6.0,15.0,63,0.00,,,0.00,Wunderground v.1.15,2013-12-13 16:59:00,
2013-12-13 12:04:00,27.1,16.2,30.10,SW,225,8.0,15.0,63,0.00,,,0.00,Wunderground v.1.15,2013-12-13 17:04:00,
2013-12-13 12:09:00,27.0,16.1,30.10,West,278,8.0,8.0,63,0.00,,,0.00,Wunderground v.1.15,2013-12-13 17:09:00,
2013-12-13 12:15:00,27.1,16.2,30.10,West,268,7.0,15.0,63,0.00,,,0.00,Wunderground v.1.15,2013-12-13 17:15:00,
2013-12-13 12:20:00,27.1,16.2,30.09,South,171,7.0,7.0,63,0.00,,,0.00,Wunderground v.1.15,2013-12-13 17:20:00,
2013-12-13 12:30:00,27.0,16.1,30.10,NW,304,9.0,15.0,63,0.00,,,0.00,Wunderground v.1.15,2013-12-13 17:30:00,
2013-12-13 12:34:00,27.0,16.4,30.10,WNW,294,7.0,15.0,64,0.00,,,0.00,Wunderground v.1.15,2013-12-13 17:34:00,
2013-12-13 12:39:00,27.0,16.4,30.10,WSW,251,6.0,15.0,64,0.00,,,0.00,Wunderground v.1.15,2013-12-13 17:39:00,
2013-12-13 12:44:00,26.8,17.0,30.10,West,263,7.0,15.0,66,0.00,,,0.00,Wunderground v.1.15,2013-12-13 17:44:00,
2013-12-13 12:49:00,26.7,16.9,30.11,West,279,6.0,15.0,66,0.00,,,0.00,Wunderground v.1.15,2013-12-13 17:49:00,
2013-12-13 12:55:00,26.7,16.9,30.11,West,280,6.0,15.0,66,0.00,,,0.00,Wunderground v.1.15,2013-12-13 17:55:00,
2013-12-13 13:05:00,26.7,17.9,30.11,WNW,290,6.0,8.0,69,0.00,,,0.00,Wunderground v.1.15,2013-12-13 18:05:00,
2013-12-13 13:10:00,26.5,18.0,30.11,West,276,7.0,7.0,70,0.00,,,0.00,Wunderground v.1.15,2013-12-13 18:10:00,
2013-12-13 13:15:00,26.3,18.5,30.11,West,262,6.0,15.0,72,0.00,,,0.00,Wunderground v.1.15,2013-12-13 18:15:00,
2013-12-13 13:19:00,26.2,18.7,30.11,West,261,6.0,6.0,73,0.00,,,0.00,Wunderground v.1.15,2013-12-13 18:19:00,
2013-12-13 13:24:00,26.1,19.3,30.12,WNW,282,5.0,9.0,75,0.00,,,0.00,Wunderground v.1.15,2013-12-13 18:24:00,
2013-12-13 13:29:00,26.2,19.7,30.11,West,274,5.0,15.0,76,0.00,,,0.00,Wunderground v.1.15,2013-12-13 18:29:00,
2013-12-13 13:34:00,26.7,19.8,30.11,West,263,4.0,15.0,75,0.00,,,0.00,Wunderground v.1.15,2013-12-13 18:34:00,
2013-12-13 13:39:00,26.9,19.1,30.11,West,273,5.0,15.0,72,0.00,,,0.00,Wunderground v.1.15,2013-12-13 18:39:00,
2013-12-13 13:44:00,27.4,19.6,30.11,West,265,4.0,15.0,72,0.00,,,0.00,Wunderground v.1.15,2013-12-13 18:44:00,
2013-12-13 13:50:00,27.8,18.9,30.11,NW,305,5.0,15.0,69,0.00,,,0.00,Wunderground v.1.15,2013-12-13 18:50:00,
2013-12-13 13:55:00,28.3,18.7,30.11,SW,217,6.0,15.0,67,0.00,,,0.00,Wunderground v.1.15,2013-12-13 18:55:00,
2013-12-13 13:59:00,28.3,18.0,30.11,WSW,240,6.0,15.0,65,0.00,,,0.00,Wunderground v.1.15,2013-12-13 18:59:00,
2013-12-13 14:04:00,28.5,18.2,30.11,West,259,7.0,15.0,65,0.00,,,0.00,Wunderground v.1.15,2013-12-13 19:04:00,
2013-12-13 14:09:00,28.5,17.5,30.12,WNW,284,8.0,15.0,63,0.00,,,0.00,Wunderground v.1.15,2013-12-13 19:09:00,
2013-12-13 14:14:00,27.9,17.3,30.13,West,271,9.0,15.0,64,0.00,,,0.00,Wunderground v.1.15,2013-12-13 19:14:00,
2013-12-13 14:19:00,27.4,20.2,30.13,WNW,296,7.0,7.0,74,0.00,,,0.00,Wunderground v.1.15,2013-12-13 19:19:00,
2013-12-13 14:24:00,26.2,20.3,30.14,NNW,329,5.0,15.0,78,0.00,,,0.00,Wunderground v.1.15,2013-12-13 19:24:00,
2013-12-13 14:30:00,25.1,20.1,30.14,WNW,292,5.0,5.0,81,0.00,,,0.00,Wunderground v.1.15,2013-12-13 19:30:00,
2013-12-13 14:35:00,24.4,19.7,30.15,WNW,288,4.0,15.0,82,0.00,,,0.00,Wunderground v.1.15,2013-12-13 19:35:00,
2013-12-13 14:39:00,23.9,19.5,30.15,WNW,297,4.0,15.0,83,0.00,,,0.00,Wunderground v.1.15,2013-12-13 19:39:00,
2013-12-13 14:44:00,23.5,19.4,30.16,NW,311,3.0,15.0,84,0.00,,,0.00,Wunderground v.1.15,2013-12-13 19:44:00,
2013-12-13 14:49:00,23.4,19.6,30.16,NW,305,2.0,2.0,85,0.00,,,0.00,Wunderground v.1.15,2013-12-13 19:49:00,
2013-12-13 14:54:00,23.4,19.6,30.17,WNW,292,1.0,15.0,85,0.00,,,0.00,Wunderground v.1.15,2013-12-13 19:54:00,
2013-12-13 14:59:00,23.4,19.8,30.17,NW,304,1.0,1.0,86,0.00,,,0.00,Wunderground v.1.15,2013-12-13 19:59:00,
2013-12-13 15:04:00,23.4,19.8,30.17,NNW,338,1.0,2.0,86,0.00,,,0.00,Wunderground v.1.15,2013-12-13 20:04:00,
2013-12-13 15:10:00,23.4,19.6,30.18,NNW,339,1.0,1.0,85,0.00,,,0.00,Wunderground v.1.15,2013-12-13 20:10:00,
2013-12-13 15:15:00,23.3,19.5,30.18,North,350,1.0,15.0,85,0.00,,,0.00,Wunderground v.1.15,2013-12-13 20:15:00,
2013-12-13 15:20:00,23.2,19.1,30.18,North,355,1.0,1.0,84,0.00,,,0.00,Wunderground v.1.15,2013-12-13 20:20:00,
2013-12-13 15:25:00,23.2,18.8,30.19,NNW,348,1.0,6.0,83,0.00,,,0.00,Wunderground v.1.15,2013-12-13 20:25:00,
2013-12-13 15:29:00,23.1,18.4,30.19,North,5,1.0,15.0,82,0.00,,,0.00,Wunderground v.1.15,2013-12-13 20:29:00,
2013-12-13 15:34:00,22.9,17.7,30.20,NW,316,2.0,15.0,80,0.00,,,0.00,Wunderground v.1.15,2013-12-13 20:34:00,
2013-12-13 15:39:00,22.8,17.3,30.20,NNW,341,3.0,15.0,79,0.00,,,0.00,Wunderground v.1.15,2013-12-13 20:39:00,
2013-12-13 15:44:00,22.6,17.1,30.21,NNW,344,2.0,15.0,79,0.00,,,0.00,Wunderground v.1.15,2013-12-13 20:44:00,
2013-12-13 15:49:00,22.6,17.1,30.21,North,350,1.0,1.0,79,0.00,,,0.00,Wunderground v.1.15,2013-12-13 20:49:00,
2013-12-13 15:54:00,22.5,17.0,30.21,NNW,328,1.0,4.0,79,0.00,,,0.00,Wunderground v.1.15,2013-12-13 20:54:00,
2013-12-13 16:00:00,22.4,16.6,30.21,NNW,337,2.0,2.0,78,0.00,,,0.00,Wunderground v.1.15,2013-12-13 21:00:00,
2013-12-13 16:05:00,22.2,16.4,30.21,NNW,327,2.0,15.0,78,0.00,,,0.00,Wunderground v.1.15,2013-12-13 21:05:00,
2013-12-13 16:09:00,22.1,16.3,30.21,NNW,333,2.0,15.0,78,0.00,,,0.00,Wunderground v.1.15,2013-12-13 21:09:00,
2013-12-13 16:14:00,21.8,16.0,30.22,North,355,2.0,15.0,78,0.00,,,0.00,Wunderground v.1.15,2013-12-13 21:14:00,
2013-12-13 16:19:00,21.6,15.5,30.22,NNW,341,2.0,15.0,77,0.00,,,0.00,Wunderground v.1.15,2013-12-13 21:19:00,
2013-12-13 16:24:00,21.4,15.3,30.22,North,360,2.0,15.0,77,0.00,,,0.00,Wunderground v.1.15,2013-12-13 21:24:00,
2013-12-13 16:29:00,21.1,15.0,30.22,North,355,2.0,15.0,77,0.00,,,0.00,Wunderground v.1.15,2013-12-13 21:29:00,
2013-12-13 16:34:00,20.9,14.8,30.22,North,355,3.0,15.0,77,0.00,,,0.00,Wunderground v.1.15,2013-12-13 21:34:00,
2013-12-13 16:40:00,20.7,14.6,30.23,NNW,335,3.0,3.0,77,0.00,,,0.00,Wunderground v.1.15,2013-12-13 21:40:00,
2013-12-13 16:45:00,20.6,14.5,30.23,NNW,348,2.0,6.0,77,0.00,,,0.00,Wunderground v.1.15,2013-12-13 21:45:00,
2013-12-13 16:49:00,20.5,14.7,30.23,North,355,2.0,2.0,78,0.00,,,0.00,Wunderground v.1.15,2013-12-13 21:49:00,
2013-12-13 16:54:00,20.4,14.6,30.23,NNW,345,1.0,15.0,78,0.00,,,0.00,Wunderground v.1.15,2013-12-13 21:54:00,
2013-12-13 17:04:00,20.2,14.1,30.24,NNW,329,2.0,15.0,77,0.00,,,0.00,Wunderground v.1.15,2013-12-13 22:04:00,
2013-12-13 17:09:00,20.0,13.9,30.24,NNW,327,2.0,2.0,77,0.00,,,0.00,Wunderground v.1.15,2013-12-13 22:09:00,
2013-12-13 17:14:00,19.8,13.8,30.24,NW,321,1.0,15.0,77,0.00,,,0.00,Wunderground v.1.15,2013-12-13 22:14:00,
2013-12-13 17:20:00,19.5,13.5,30.24,NNW,338,1.0,1.0,77,0.00,,,0.00,Wunderground v.1.15,2013-12-13 22:20:00,
2013-12-13 17:25:00,19.2,13.2,30.25,NW,311,1.0,5.0,77,0.00,,,0.00,Wunderground v.1.15,2013-12-13 22:25:00,
2013-12-13 17:30:00,19.0,13.0,30.25,NW,317,1.0,15.0,77,0.00,,,0.00,Wunderground v.1.15,2013-12-13 22:30:00,
2013-12-13 17:35:00,18.8,12.8,30.26,NNW,336,1.0,15.0,77,0.00,,,0.00,Wunderground v.1.15,2013-12-13 22:35:00,
2013-12-13 17:39:00,18.7,13.0,30.26,NW,324,1.0,15.0,78,0.00,,,0.00,Wunderground v.1.15,2013-12-13 22:39:00,
2013-12-13 17:44:00,18.7,13.0,30.26,NNW,327,1.0,15.0,78,0.00,,,0.00,Wunderground v.1.15,2013-12-13 22:44:00,
2013-12-13 17:49:00,18.7,13.0,30.27,NNE,15,1.0,15.0,78,0.00,,,0.00,Wunderground v.1.15,2013-12-13 22:49:00,
2013-12-13 17:54:00,18.7,13.0,30.27,NW,319,1.0,15.0,78,0.00,,,0.00,Wunderground v.1.15,2013-12-13 22:54:00,
2013-12-13 17:59:00,18.6,12.9,30.28,NW,319,0.0,15.0,78,0.00,,,0.00,Wunderground v.1.15,2013-12-13 22:59:00,
2013-12-13 18:05:00,18.7,13.0,30.28,NW,319,0.0,15.0,78,0.00,,,0.00,Wunderground v.1.15,2013-12-13 23:05:00,
2013-12-13 18:10:00,18.7,13.3,30.28,NW,304,0.0,15.0,79,0.00,,,0.00,Wunderground v.1.15,2013-12-13 23:10:00,
2013-12-13 18:15:00,18.8,13.1,30.29,NW,305,0.0,15.0,78,0.00,,,0.00,Wunderground v.1.15,2013-12-13 23:15:00,
2013-12-13 18:20:00,18.8,13.1,30.29,NW,319,0.0,15.0,78,0.00,,,0.00,Wunderground v.1.15,2013-12-13 23:20:00,
2013-12-13 18:24:00,18.8,12.8,30.29,NNW,327,1.0,15.0,77,0.00,,,0.00,Wunderground v.1.15,2013-12-13 23:24:00,
2013-12-13 18:29:00,18.8,12.5,30.30,NW,312,2.0,15.0,76,0.00,,,0.00,Wunderground v.1.15,2013-12-13 23:29:00,
2013-12-13 18:34:00,18.8,12.5,30.30,NW,322,2.0,15.0,76,0.00,,,0.00,Wunderground v.1.15,2013-12-13 23:34:00,
2013-12-13 18:39:00,18.8,12.5,30.30,WNW,286,1.0,15.0,76,0.00,,,0.00,Wunderground v.1.15,2013-12-13 23:39:00,
2013-12-13 18:44:00,18.8,12.2,30.30,NW,321,1.0,15.0,75,0.00,,,0.00,Wunderground v.1.15,2013-12-13 23:44:00,
2013-12-13 18:49:00,18.7,11.8,30.30,NNW,342,2.0,15.0,74,0.00,,,0.00,Wunderground v.1.15,2013-12-13 23:49:00,
2013-12-13 18:55:00,18.7,11.5,30.31,NNW,331,2.0,15.0,73,0.00,,,0.00,Wunderground v.1.15,2013-12-13 23:55:00,
2013-12-13 19:00:00,18.7,11.5,30.31,NW,310,2.0,15.0,73,0.00,,,0.00,Wunderground v.1.15,2013-12-14 00:00:00,
2013-12-13 19:05:00,18.6,11.1,30.32,WNW,298,3.0,15.0,72,0.00,,,0.00,Wunderground v.1.15,2013-12-14 00:05:00,
2013-12-13 19:09:00,18.6,11.1,30.31,West,276,3.0,3.0,72,0.00,,,0.00,Wunderground v.1.15,2013-12-14 00:09:00,
2013-12-13 19:14:00,18.5,10.7,30.32,West,278,3.0,4.0,71,0.00,,,0.00,Wunderground v.1.15,2013-12-14 00:14:00,
2013-12-13 19:19:00,18.5,10.7,30.32,NW,313,3.0,15.0,71,0.00,,,0.00,Wunderground v.1.15,2013-12-14 00:19:00,
2013-12-13 19:24:00,18.4,10.2,30.33,NW,305,3.0,15.0,70,0.00,,,0.00,Wunderground v.1.15,2013-12-14 00:24:00,
2013-12-13 19:29:00,18.4,10.2,30.33,WNW,303,4.0,15.0,70,0.00,,,0.00,Wunderground v.1.15,2013-12-14 00:29:00,
2013-12-13 19:35:00,18.3,9.8,30.33,WNW,288,4.0,15.0,69,0.00,,,0.00,Wunderground v.1.15,2013-12-14 00:35:00,
2013-12-13 19:40:00,18.2,9.4,30.33,NW,309,5.0,5.0,68,0.00,,,0.00,Wunderground v.1.15,2013-12-14 00:40:00,
2013-12-13 19:44:00,18.2,9.1,30.33,NW,323,5.0,15.0,67,0.00,,,0.00,Wunderground v.1.15,2013-12-14 00:44:00,
2013-12-13 19:49:00,18.1,9.0,30.34,North,355,5.0,5.0,67,0.00,,,0.00,Wunderground v.1.15,2013-12-14 00:49:00,
2013-12-13 19:54:00,18.0,8.9,30.34,WNW,300,5.0,15.0,67,0.00,,,0.00,Wunderground v.1.15,2013-12-14 00:54:00,
2013-12-13 19:59:00,18.0,8.9,30.34,WNW,284,5.0,5.0,67,0.00,,,0.00,Wunderground v.1.15,2013-12-14 00:59:00,
2013-12-13 20:04:00,18.0,8.9,30.34,WNW,303,5.0,15.0,67,0.00,,,0.00,Wunderground v.1.15,2013-12-14 01:04:00,
2013-12-13 20:09:00,17.9,8.8,30.34,West,281,4.0,4.0,67,0.00,,,0.00,Wunderground v.1.15,2013-12-14 01:09:00,
2013-12-13 20:14:00,17.9,8.8,30.35,NW,317,4.0,15.0,67,0.00,,,0.00,Wunderground v.1.15,2013-12-14 01:14:00,
2013-12-13 20:20:00,17.8,8.7,30.35,WNW,283,3.0,3.0,67,0.00,,,0.00,Wunderground v.1.15,2013-12-14 01:20:00,
2013-12-13 20:25:00,17.8,8.7,30.35,WNW,293,2.0,15.0,67,0.00,,,0.00,Wunderground v.1.15,2013-12-14 01:25:00,
2013-12-13 20:30:00,17.8,9.0,30.35,WNW,293,2.0,2.0,68,0.00,,,0.00,Wunderground v.1.15,2013-12-14 01:30:00,
2013-12-13 20:35:00,17.7,8.9,30.35,West,265,1.0,15.0,68,0.00,,,0.00,Wunderground v.1.15,2013-12-14 01:35:00,
2013-12-13 20:39:00,17.7,8.9,30.35,NNW,330,1.0,15.0,68,0.00,,,0.00,Wunderground v.1.15,2013-12-14 01:39:00,
2013-12-13 20:44:00,17.7,8.9,30.35,WNW,293,2.0,15.0,68,0.00,,,0.00,Wunderground v.1.15,2013-12-14 01:44:00,
2013-12-13 20:49:00,17.7,8.9,30.35,NW,304,2.0,2.0,68,0.00,,,0.00,Wunderground v.1.15,2013-12-14 01:49:00,
2013-12-13 20:54:00,17.6,8.8,30.36,NW,304,1.0,15.0,68,0.00,,,0.00,Wunderground v.1.15,2013-12-14 01:54:00,
2013-12-13 20:59:00,17.6,9.2,30.36,NW,304,0.0,15.0,69,0.00,,,0.00,Wunderground v.1.15,2013-12-14 01:59:00,
2013-12-13 21:05:00,17.6,9.5,30.36,NW,304,0.0,15.0,70,0.00,,,0.00,Wunderground v.1.15,2013-12-14 02:05:00,
2013-12-13 21:10:00,17.5,9.1,30.36,NW,304,0.0,15.0,69,0.00,,,0.00,Wunderground v.1.15,2013-12-14 02:10:00,
2013-12-13 21:15:00,17.6,9.5,30.37,NW,304,0.0,15.0,70,0.00,,,0.00,Wunderground v.1.15,2013-12-14 02:15:00,
2013-12-13 21:24:00,17.6,9.5,30.37,NW,304,0.0,15.0,70,0.00,,,0.00,Wunderground v.1.15,2013-12-14 02:24:00,
2013-12-13 21:29:00,17.6,9.5,30.37,WNW,296,0.0,15.0,70,0.00,,,0.00,Wunderground v.1.15,2013-12-14 02:29:00,
2013-12-13 21:34:00,17.6,9.5,30.37,WNW,296,0.0,15.0,70,0.00,,,0.00,Wunderground v.1.15,2013-12-14 02:34:00,
2013-12-13 21:39:00,17.6,9.5,30.37,WNW,296,0.0,15.0,70,0.00,,,0.00,Wunderground v.1.15,2013-12-14 02:39:00,
2013-12-13 21:45:00,17.5,9.4,30.38,WNW,296,0.0,15.0,70,0.00,,,0.00,Wunderground v.1.15,2013-12-14 02:45:00,
2013-12-13 21:50:00,17.5,9.7,30.38,WNW,296,0.0,15.0,71,0.00,,,0.00,Wunderground v.1.15,2013-12-14 02:50:00,
2013-12-13 21:55:00,17.5,10.0,30.38,WNW,296,0.0,15.0,72,0.00,,,0.00,Wunderground v.1.15,2013-12-14 02:55:00,
2013-12-13 22:04:00,17.5,9.7,30.38,NNW,334,0.0,15.0,71,0.00,,,0.00,Wunderground v.1.15,2013-12-14 03:04:00,
2013-12-13 22:09:00,17.5,9.7,30.38,NNW,334,0.0,15.0,71,0.00,,,0.00,Wunderground v.1.15,2013-12-14 03:09:00,
2013-12-13 22:14:00,17.5,10.0,30.39,NNW,334,0.0,15.0,72,0.00,,,0.00,Wunderground v.1.15,2013-12-14 03:14:00,
2013-12-13 22:20:00,17.5,9.7,30.39,NNW,334,0.0,15.0,71,0.00,,,0.00,Wunderground v.1.15,2013-12-14 03:20:00,
2013-12-13 22:25:00,17.4,9.6,30.39,NNW,334,0.0,15.0,71,0.00,,,0.00,Wunderground v.1.15,2013-12-14 03:25:00,
2013-12-13 22:34:00,17.4,9.6,30.39,NNW,334,0.0,15.0,71,0.00,,,0.00,Wunderground v.1.15,2013-12-14 03:34:00,
2013-12-13 22:39:00,17.5,9.7,30.39,NW,309,0.0,15.0,71,0.00,,,0.00,Wunderground v.1.15,2013-12-14 03:39:00,
2013-12-13 22:44:00,17.5,9.7,30.40,NW,309,0.0,15.0,71,0.00,,,0.00,Wunderground v.1.15,2013-12-14 03:44:00,
2013-12-13 22:49:00,17.5,9.7,30.40,WNW,297,1.0,1.0,71,0.00,,,0.00,Wunderground v.1.15,2013-12-14 03:49:00,
2013-12-13 22:55:00,17.6,9.8,30.41,WNW,297,0.0,15.0,71,0.00,,,0.00,Wunderground v.1.15,2013-12-14 03:55:00,
2013-12-13 23:00:00,17.6,10.1,30.41,WNW,297,0.0,15.0,72,0.00,,,0.00,Wunderground v.1.15,2013-12-14 04:00:00,
2013-12-13 23:04:00,17.6,10.1,30.41,WNW,297,0.0,15.0,72,0.00,,,0.00,Wunderground v.1.15,2013-12-14 04:04:00,
2013-12-13 23:09:00,17.6,10.1,30.41,WNW,297,1.0,1.0,72,0.00,,,0.00,Wunderground v.1.15,2013-12-14 04:09:00,
2013-12-13 23:14:00,17.6,10.1,30.42,WNW,297,1.0,15.0,72,0.00,,,0.00,Wunderground v.1.15,2013-12-14 04:14:00,
2013-12-13 23:19:00,17.6,10.1,30.42,WSW,257,1.0,15.0,72,0.00,,,0.00,Wunderground v.1.15,2013-12-14 04:19:00,
2013-12-13 23:24:00,17.6,10.1,30.42,WNW,297,1.0,15.0,72,0.00,,,0.00,Wunderground v.1.15,2013-12-14 04:24:00,
2013-12-13 23:29:00,17.7,10.2,30.42,WNW,293,1.0,15.0,72,0.00,,,0.00,Wunderground v.1.15,2013-12-14 04:29:00,
2013-12-13 23:34:00,17.7,10.5,30.42,NW,319,1.0,15.0,73,0.00,,,0.00,Wunderground v.1.15,2013-12-14 04:34:00,
2013-12-13 23:40:00,17.7,10.5,30.41,NW,319,0.0,15.0,73,0.00,,,0.00,Wunderground v.1.15,2013-12-14 04:40:00,
2013-12-13 23:45:00,17.6,10.4,30.41,NW,319,0.0,15.0,73,0.00,,,0.00,Wunderground v.1.15,2013-12-14 04:45:00,
2013-12-13 23:49:00,17.6,10.7,30.41,NW,319,0.0,15.0,74,0.00,,,0.00,Wunderground v.1.15,2013-12-14 04:49:00,
2013-12-13 23:55:00,17.6,11.0,30.41,NW,319,0.0,15.0,75,0.00,,,0.00,Wunderground v.1.15,2013-12-14 04:55:00,